Regional Weather Roundup
Issued by NWS Northern Indiana

Home | Current Version | Previous Version | Graphics & Text | Print | Product List | Glossary On
Versions: 1 2 3 4 5 6 7 8 9 10 11 12 13 14 15 16 17 18 19 20 21 22 23 24 25 26 27 28 29 30 31 32 33 34 35 36 37 38 39 40 41 42 43 44 45 46 47 48 49 50
000
ASUS43 KIWX 212200
RWRIWX

KIWX WEATHER ROUNDUP
NATIONAL WEATHER SERVICE NORTHERN INDIANA
600 PM EDT SAT APR 21 2018

NOTE: "FAIR" INDICATES FEW OR NO CLOUDS BELOW 12,000 FEET WITH NO
SIGNIFICANT WEATHER AND/OR OBSTRUCTIONS TO VISIBILITY.

* THESE STATIONS ARE NOT UNDER NWS QUALITY CONTROL. THEY ALSO MAY NOT
  REPORT WEATHER SUCH AS PRECIPITATION OR FOG.

INZ001>027-212300-
NORTHERN INDIANA

CITY           SKY/WX    TMP DP  RH WIND       PRES   REMARKS
GARY*          CLOUDY    46  30  53 CALM      30.40S
KNOX*          CLOUDY    54  27  35 NE8       30.38S
SOUTH BEND     CLOUDY    55  23  28 CALM      30.39F
GOSHEN         PTSUNNY   56  26  31 CALM      30.38F
MONTICELLO*    CLOUDY    57  22  25 NE9       30.35S
ROCHESTER*     FAIR      57  23  26 NE7       30.38S
WARSAW*        PTSUNNY   54  27  35 E7        30.37F
FORT WAYNE     CLOUDY    55  24  30 E8        30.40S

$$
INZ028>050-212300-
CENTRAL INDIANA

CITY           SKY/WX    TMP DP  RH WIND       PRES   REMARKS
LAFAYETTE      FAIR      57  26  30 NE16      30.32F
KOKOMO*        CLOUDY    56  26  31 NE14      30.36F
MUNCIE*        FAIR      59  21  23 NE13      30.34F
INDIANAPOLIS   PTSUNNY   60  20  21 E9        30.31F

$$
MIZ043>046-050>051-056>058-064>065-071>073-077>080-212300-
SOUTHWEST LOWER MICHIGAN

CITY           SKY/WX    TMP DP  RH WIND       PRES   REMARKS
BATTLE CREEK   FAIR      57  27  31 SW7       30.39S
BENTON HARBOR  FAIR      51  16  24 N8        30.39F
COLDWATER*     FAIR      57  25  28 CALM      30.38S
HILLSDALE*     PTSUNNY   54  21  28 CALM      30.39R
HOLLAND        FAIR      53  21  28 NW6       30.40F
GRAND RAPIDS   PTSUNNY   58  23  26 VRB6      30.38S
KALAMAZOO      FAIR      58  23  26 SW3       30.38S

$$
OHZ001>008-015>018-024>025-212300-
NORTHWEST OHIO

CITY           SKY/WX    TMP DP  RH WIND       PRES   REMARKS
WAUSEON*       FAIR      57  25  28 N5        30.40S
FINDLAY        CLOUDY    56  22  26 NE9       30.40R
TOLEDO EXPRESS FAIR      56  27  32 E9        30.41R
TOLEDO METCALF FAIR      52  10  18 NE7       30.43R
LIMA           CLOUDY    53  27  36 NE9       30.39R

$$
AND FOR LAKE MICHIGAN COASTAL AND OPEN LAKE BUOY OBSERVATIONS

STATION/POSITION TEMP    WIND        PRES    VSBY  WAVE
                 AIR SEA DIR/SP/G                  HT/PER
                 (F)     (DEG/KT/KT) (MB)    (MI)  (FT/S)
CALUMET HARBOR    43      20/  5/  6 1028.3F
MICHIGAN CITY     42      30/  5/  6   N/A
BURNS HARBOR      43      50/  6/  7 1029.5F
SAINT JOSEPH      46      10/  5/  8 1030.1

$$
&&



USA.gov is the U.S. government's official web portal to all federal, state and local government web resources and services.